Lapse_Rate
6.0 6.2 6.1 5.9 5.8 5.6 5.7 5.7 5.7 5.9 6.1 6.2 6.2 6.3 6.4 6.4 6.3 6.2 6.3 6.2 6.1 6.1 6.2 6.3 6.3 6.2 6.0 5.8 6.0 6.1 6.3 6.5 6.7 6.7 6.9 7.0 7.1 7.8 7.9 7.6 8.0 8.7 8.6 8.4 8.7 8.8 8.4
6.0 6.1 6.0 6.0 5.8 5.7 5.7 5.7 5.7 5.8 6.0 6.1 6.2 6.3 6.4 6.5 6.5 6.4 6.4 6.3 6.3 6.2 6.3 6.3 6.4 6.3 6.0 5.8 6.1 6.1 6.2 6.5 6.6 6.6 6.7 6.7 6.7 7.2 7.8 7.7 8.0 8.3 8.9 9.0 8.5 8.9 8.8
6.0 5.9 5.9 6.0 5.9 5.8 5.8 5.8 5.8 5.8 6.0 6.1 6.2 6.3 6.4 6.4 6.6 6.6 6.5 6.4 6.5 6.3 6.3 6.3 6.3 6.2 6.1 6.1 6.1 6.2 6.1 6.4 6.6 6.6 6.7 6.7 6.5 7.0 7.7 8.1 8.3 8.4 8.7 8.9 9.0 8.6 9.0
5.9 5.8 5.9 5.9 5.9 5.8 5.8 5.8 5.8 5.8 5.9 6.1 6.2 6.3 6.4 6.4 6.5 6.6 6.6 6.6 6.6 6.5 6.4 6.3 6.3 6.1 5.9 6.1 6.0 6.1 6.2 6.3 6.5 6.7 6.6 6.6 6.7 7.1 7.8 8.6 8.2 8.3 8.5 8.5 9.0 8.7 8.7
5.9 5.9 5.8 5.8 5.9 5.8 5.9 5.9 5.8 5.8 5.9 6.0 6.1 6.1 6.3 6.4 6.5 6.5 6.5 6.6 6.6 6.7 6.6 6.4 6.4 6.2 6.0 6.2 6.1 6.2 6.2 6.3 6.5 6.6 6.6 6.7 6.8 7.4 8.2 8.2 8.3 8.5 8.7 8.3 8.7 8.9 8.6
5.7 5.9 5.8 5.7 5.8 6.0 5.9 5.9 6.0 5.9 5.9 5.9 5.9 6.1 6.2 6.2 6.3 6.3 6.3 6.4 6.6 6.7 6.7 6.6 6.4 6.4 6.4 6.3 6.3 6.4 6.3 6.3 6.5 6.7 6.5 6.7 7.0 7.6 7.7 7.6 7.7 7.9 8.5 8.3 8.5 8.9 8.9
5.6 5.7 5.8 5.8 5.9 5.8 5.9 6.0 6.0 6.0 6.0 5.9 5.9 5.9 6.1 6.2 6.1 6.1 6.2 6.3 6.5 6.5 6.6 6.7 6.7 6.7 6.7 6.4 6.4 6.6 6.4 6.3 6.4 6.6 6.6 6.8 7.2 7.4 7.2 7.3 7.5 7.9 8.4 8.3 8.2 8.8 8.9
5.4 5.6 5.8 5.9 5.8 5.9 5.9 6.0 6.0 6.1 6.0 6.1 6.0 6.0 6.1 6.0 6.0 6.1 6.4 6.5 6.5 6.6 6.5 6.6 6.6 6.4 6.5 6.5 6.5 6.6 6.6 6.4 6.3 6.6 6.8 7.0 7.4 7.1 7.3 7.4 7.7 7.9 8.1 8.2 8.2 8.3 8.8
5.4 5.4 5.6 5.8 5.8 5.9 5.9 5.9 6.0 6.1 6.2 6.1 6.1 6.1 5.9 6.0 6.1 6.2 6.4 6.5 6.4 6.4 6.6 6.7 6.4 6.5 6.4 6.3 6.3 6.4 6.4 6.5 6.5 6.8 6.8 6.8 7.1 7.2 7.4 7.8 8.1 8.0 8.0 7.9 8.0 8.1 8.1
5.4 5.4 5.5 5.7 5.9 5.9 5.9 5.9 6.0 6.1 6.2 6.2 6.2 6.1 6.0 6.0 6.2 6.3 6.4 6.4 6.4 6.4 6.5 6.7 6.5 6.4 6.4 6.3 6.3 6.3 6.3 6.4 6.4 6.7 6.6 6.9 7.2 7.4 7.6 7.8 8.0 8.1 7.7 7.8 7.8 7.8 7.7
5.6 5.4 5.4 5.5 5.8 5.9 5.9 5.9 6.0 6.1 6.3 6.3 6.3 6.1 6.1 6.2 6.3 6.4 6.4 6.5 6.5 6.6 5.9 6.7 6.6 6.5 6.4 6.5 6.5 6.5 6.5 6.3 6.5 6.7 6.8 7.0 7.3 7.4 7.6 8.0 7.9 7.9 7.8 7.7 7.7 7.8 7.7
5.8 5.7 5.5 5.5 5.6 5.8 6.0 6.0 6.0 6.1 6.3 6.3 6.3 6.3 6.3 6.5 6.5 6.4 6.4 6.4 6.6 6.4 6.5 6.6 6.6 6.7 6.6 6.6 6.6 6.5 6.5 6.4 6.4 6.4 6.8 7.2 7.5 7.6 8.0 8.0 7.9 7.9 7.9 7.7 7.7 7.9 7.6
5.9 5.8 5.7 5.5 5.5 5.6 5.9 6.0 6.1 6.2 6.3 6.3 6.4 6.4 6.5 6.4 6.6 6.5 6.5 6.6 6.5 6.5 6.8 6.8 6.8 6.9 6.8 6.8 6.7 6.6 6.6 6.5 6.5 6.8 7.0 7.5 7.7 7.7 8.0 8.3 8.3 8.2 8.1 7.8 6.9 6.4 7.1
5.8 5.9 5.9 5.7 5.5 5.5 5.7 5.9 6.1 6.2 6.3 6.5 6.5 6.6 6.5 6.5 6.5 6.5 6.5 6.5 6.6 6.9 6.9 7.0 6.9 6.9 6.9 6.9 6.8 6.8 6.7 6.7 6.8 7.0 7.3 7.7 7.8 8.0 8.3 8.6 8.4 8.1 7.9 7.7 7.1 6.0 7.5
5.7 5.7 5.9 6.0 5.7 5.6 5.6 5.8 6.0 6.2 6.3 6.5 6.6 6.6 6.5 6.7 6.6 6.4 6.4 6.5 6.9 7.0 7.1 7.1 7.0 6.8 6.8 6.9 7.0 6.8 6.8 7.0 7.3 7.6 7.5 7.7 8.0 8.2 8.5 8.5 8.2 8.1 7.9 7.9 7.9 7.1 7.1
5.9 6.0 6.1 6.1 6.2 5.9 5.7 5.8 6.0 6.1 6.3 6.5 6.6 6.5 6.5 6.6 6.6 6.5 6.5 7.0 6.9 6.9 7.3 7.3 7.3 7.1 7.1 7.0 7.0 7.0 7.2 7.6 7.6 7.7 7.7 7.8 7.9 8.2 8.1 8.2 8.2 8.2 8.1 8.2 8.4 7.0 7.4
6.1 6.0 6.2 6.3 6.3 6.4 6.1 5.9 5.9 6.1 6.3 6.4 6.5 6.4 6.5 6.5 6.5 6.5 6.8 7.1 6.9 7.0 7.1 7.3 7.3 7.3 7.3 7.3 7.3 7.4 7.5 7.7 7.8 8.0 8.0 7.8 7.8 7.9 8.0 7.9 7.9 7.7 7.6 8.0 8.2 8.2 7.2
6.0 6.1 6.2 6.3 6.3 6.4 6.5 6.3 6.1 6.1 6.2 6.3 6.3 6.3 6.4 6.3 6.5 6.7 7.1 7.1 7.0 7.0 7.0 7.1 7.3 7.3 7.3 7.4 7.6 7.6 7.7 7.7 7.8 8.0 8.1 8.0 7.9 7.9 8.0 7.7 7.8 8.1 8.1 8.0 8.0 8.0 8.2
5.9 6.1 6.2 6.3 6.3 6.3 6.5 6.7 6.5 6.4 6.3 6.2 6.1 6.2 6.2 6.3 6.3 6.6 6.9 7.0 7.1 7.0 7.1 7.1 7.3 7.4 7.4 7.4 7.4 7.5 7.5 7.7 7.8 7.9 7.9 8.1 7.6 7.8 7.6 7.6 7.9 8.4 8.4 8.3 8.5 8.5 8.3
5.8 6.1 6.3 6.3 6.3 6.4 6.4 6.6 6.8 6.7 6.4 6.1 6.0 5.9 5.8 6.1 6.1 6.2 6.4 6.8 7.1 7.0 7.0 7.1 7.1 7.2 7.3 7.4 7.6 7.5 7.5 7.6 7.6 7.7 7.8 7.8 7.7 7.7 7.9 8.2 8.4 8.2 7.8 8.0 8.3 8.8 9.0
5.8 6.0 6.3 6.4 6.4 6.4 6.5 6.5 6.7 6.9 6.6 6.2 5.8 5.7 5.8 6.0 6.1 6.1 6.1 6.6 7.1 6.9 7.0 7.0 7.1 7.1 7.2 7.3 7.5 7.6 7.6 7.5 7.5 7.6 7.6 7.5 7.5 7.4 7.6 7.7 8.0 8.2 7.8 7.7 7.6 7.9 8.7
6.0 5.9 6.1 6.4 6.5 6.5 6.5 6.6 6.7 6.8 6.8 6.5 5.9 5.7 6.0 6.0 5.9 6.1 6.2 6.8 7.1 6.8 7.0 7.0 7.0 7.1 7.2 7.2 7.3 7.6 7.6 7.5 7.6 7.5 7.5 7.5 7.5 7.4 7.3 7.2 7.4 7.7 7.8 7.9 7.9 7.9 8.0
6.0 6.0 6.1 6.3 6.5 6.6 6.7 6.6 6.7 6.8 6.8 6.7 6.4 6.3 6.4 6.1 6.0 6.2 6.4 6.9 7.2 6.7 6.8 7.1 7.1 7.3 7.3 7.2 7.2 7.4 7.5 7.5 7.5 7.4 7.4 7.3 7.4 7.1 6.8 6.9 6.9 7.1 7.8 7.9 8.0 8.0 7.9
5.9 6.1 6.1 6.3 6.5 6.7 6.7 6.7 6.7 6.7 6.8 6.8 6.8 6.7 6.8 6.5 6.3 6.4 6.5 7.1 7.2 7.0 7.0 7.2 7.3 7.3 7.3 7.4 7.4 7.4 7.4 7.2 7.2 7.2 7.2 7.1 7.0 6.8 6.9 6.9 6.2 7.5 7.6 7.6 7.8 7.7 7.6
5.8 6.0 6.1 6.2 6.5 6.6 6.7 6.8 6.8 6.7 6.8 6.9 7.0 7.0 7.0 7.0 6.9 6.8 6.8 7.1 7.2 7.2 6.9 7.0 6.9 6.9 7.0 6.9 7.0 6.9 6.7 6.7 6.8 6.8 6.9 6.9 6.8 6.8 6.8 6.9 6.9 7.1 7.4 7.6 7.7 7.5 7.4
5.7 5.8 6.0 6.0 6.2 6.5 6.7 6.8 6.9 6.9 6.9 6.9 6.9 7.2 7.3 7.1 7.2 7.3 7.1 7.3 7.3 7.1 6.9 6.9 7.0 6.9 6.9 6.8 6.9 6.8 6.8 6.9 7.0 6.9 6.9 6.9 7.0 7.0 6.8 6.6 5.9 7.1 7.5 7.5 7.7 7.3 7.0
5.7 5.9 5.9 5.9 6.0 6.2 6.5 6.7 6.8 7.0 7.0 6.9 7.0 7.0 7.2 7.5 7.4 7.4 7.4 7.4 7.5 7.4 7.2 7.1 7.0 7.0 6.8 6.9 6.9 6.9 7.0 7.0 7.0 6.8 6.8 6.7 6.7 6.7 6.8 6.7 6.8 7.0 7.2 7.5 7.1 7.6 7.3
5.5 5.6 6.0 5.9 6.0 6.1 6.3 6.5 6.5 6.7 6.9 7.0 7.0 7.0 7.1 7.3 7.5 7.7 7.7 7.6 7.6 7.5 7.4 7.3 7.1 6.9 7.0 7.0 7.0 6.9 6.8 6.7 6.6 6.6 6.3 6.3 6.5 6.5 6.6 6.6 6.5 6.7 7.0 7.1 7.5 7.6 7.2
5.0 5.9 6.1 5.9 6.0 6.0 6.1 6.3 6.4 6.6 6.8 6.9 7.0 7.0 7.1 7.3 7.4 7.6 7.7 7.8 7.8 7.7 7.5 7.3 7.3 7.3 7.2 7.2 6.9 6.7 6.6 6.4 6.3 6.3 6.3 6.3 6.4 6.6 6.6 6.8 6.7 6.7 6.6 6.9 6.9 7.0 6.9
Wind_Speed
11 12 12 12 12 12 12 12 12 13 13 14 15 16 15 16 16 16 16 17 18 19 18 18 17 16 4 1 5 6 11 17 7 3 3 4 4 2 4 3 3 3 3 1 5 6 1
13 12 12 12 13 13 13 13 13 13 14 14 15 16 16 16 16 16 17 18 19 19 18 16 14 15 1 2 2 12 10 9 4 5 4 6 6 7 5 5 3 4 2 2 2 4 1
12 12 12 13 13 13 14 14 15 14 14 14 15 16 16 17 18 18 19 19 20 19 17 12 9 3 1 5 3 10 9 7 6 5 4 6 3 1 2 4 3 1 2 4 1 3 2
12 12 13 13 13 14 14 14 14 15 15 15 15 15 16 17 19 20 21 22 20 18 11 7 5 1 5 2 7 6 4 5 5 9 4 5 8 6 1 4 7 6 5 5 1 7 2
12 13 13 14 14 14 14 14 15 15 15 15 15 16 16 17 20 22 23 25 15 6 3 2 1 2 6 4 3 4 6 3 2 4 5 4 4 4 6 4 6 6 4 5 4 4 3
12 13 14 14 15 15 14 14 14 14 15 15 16 16 17 18 19 21 26 12 2 2 1 2 2 2 3 1 3 1 4 3 1 4 5 7 6 4 4 6 2 6 6 5 4 5 4
13 13 14 14 15 15 15 15 15 15 15 16 17 17 18 18 18 17 11 2 4 2 1 5 2 2 5 8 3 1 2 4 3 7 3 5 6 1 5 3 5 5 3 4 5 4 3
14 13 13 14 14 15 16 15 15 16 17 18 17 17 18 18 18 17 1 4 6 3 5 3 4 6 5 3 2 1 3 4 2 2 2 6 2 4 5 4 5 4 1 4 4 2 6
14 14 14 14 15 15 16 17 17 17 16 16 16 17 18 18 22 1 1 3 3 3 3 5 4 4 4 6 4 4 4 3 4 3 2 4 5 4 1 4 9 3 1 4 5 2 3
14 14 15 15 16 17 17 17 18 18 17 17 16 16 16 23 2 2 2 0 7 5 4 3 3 5 4 3 1 2 3 5 2 6 5 4 4 1 3 3 4 4 3 5 4 4 3
14 15 15 16 17 17 19 19 19 19 19 17 15 13 13 10 3 1 0 8 3 3 4 4 4 1 1 6 3 1 2 6 7 4 6 6 2 1 4 5 5 8 4 3 2 2 3
15 15 16 16 17 18 21 20 21 20 19 17 14 11 9 1 0 6 12 6 3 5 3 3 5 5 5 1 1 3 3 6 3 4 3 6 2 3 7 2 5 2 1 7 4 3 3
15 16 16 17 17 19 22 21 23 21 21 18 13 9 4 2 3 9 7 3 5 3 3 4 4 4 3 4 2 3 5 3 5 4 2 5 4 3 3 1 2 6 7 4 5 5 4
15 16 16 17 18 20 22 22 23 23 22 19 14 7 4 5 3 9 3 5 3 3 5 2 4 3 6 5 2 3 5 3 2 5 3 3 6 2 2 2 5 4 6 5 1 1 5
16 17 17 17 18 20 22 23 23 24 23 21 9 0 3 3 10 2 5 2 6 5 1 5 4 5 2 1 3 2 6 7 7 8 6 4 4 4 2 2 4 2 4 3 7 2 2
16 17 18 18 19 21 23 23 24 25 23 16 1 2 3 2 13 4 4 5 4 4 4 2 5 4 7 4 4 5 6 3 5 10 4 5 2 1 4 3 7 3 6 4 4 1 3
16 17 18 19 19 21 23 24 25 26 25 5 2 3 3 2 0 5 3 6 5 6 5 6 5 5 5 6 7 5 6 3 5 5 4 6 3 5 3 4 3 4 3 7 5 3 5
16 17 18 19 19 21 24 24 25 25 25 1 2 2 3 2 4 1 3 5 4 5 2 3 4 2 7 6 4 4 8 5 5 7 8 3 5 2 2 4 3 3 3 4 5 4 0
14 17 17 19 20 21 24 24 26 25 14 1 2 1 2 3 3 2 4 4 4 3 3 4 2 2 3 4 5 5 4 3 2 4 8 7 2 3 6 6 5 6 2 5 4 3 3
13 16 17 18 20 22 24 25 27 28 11 3 2 2 3 3 0 5 0 4 4 3 5 4 2 2 3 4 5 4 3 5 3 3 6 8 4 6 7 6 4 3 3 3 3 3 3
12 14 16 17 20 22 24 25 26 27 8 1 2 2 3 3 3 4 2 2 3 5 3 2 1 4 6 3 3 3 3 4 5 5 5 4 4 2 1 3 4 6 4 1 2 2 2
12 12 15 17 19 22 24 24 26 28 7 2 2 2 3 2 1 3 4 4 5 4 4 5 3 1 3 6 6 6 5 1 2 6 4 3 2 2 1 3 3 3 6 6 2 3 4
11 13 14 16 18 21 24 24 25 28 13 2 2 1 3 2 1 3 4 5 5 3 4 6 5 6 6 6 5 4 2 4 3 4 3 3 5 3 3 2 3 3 6 3 3 2 2
11 14 15 16 18 20 23 23 23 23 16 1 1 1 2 2 0 2 2 3 3 5 3 1 3 6 3 8 6 5 8 6 8 6 3 5 4 2 3 1 2 7 3 3 8 4 4
11 13 15 17 17 17 20 21 23 23 22 1 2 2 2 1 2 4 5 3 2 4 4 2 5 1 5 7 5 5 5 3 5 7 4 3 5 3 4 4 4 3 5 5 6 5 2
11 12 14 15 17 17 18 20 21 23 24 1 1 0 2 3 4 2 3 3 2 3 5 4 4 2 7 4 4 4 4 3 2 2 5 6 6 4 3 4 8 7 3 6 2 1 4
12 13 12 13 15 15 17 18 19 20 22 3 2 2 3 1 4 1 2 2 2 2 1 3 5 3 4 3 3 3 4 3 4 4 4 2 3 5 3 4 6 5 6 3 5 5 0
10 12 12 12 13 14 15 16 16 17 19 6 3 5 2 1 5 5 3 2 1 2 3 3 3 3 3 4 3 4 3 5 3 4 4 6 5 4 3 3 5 4 1 4 4 2 2
11 12 13 12 12 13 14 14 14 15 16 11 2 3 2 3 5 3 6 5 3 5 4 1 3 3 5 5 1 3 2 1 3 2 1 1 5 4 7 5 3 4 3 3 4 3 1
Wind_Direction
353 353 351 347 346 343 345 342 342 342 341 341 339 336 335 333 331 332 328 325 320 318 316 317 324 328 342 0 260 129 139 152 135 86 116 139 149 220 305 273 126 257 320 133 107 109 173
347 349 345 344 344 341 342 339 339 340 338 338 337 334 332 331 329 329 326 323 317 313 312 314 326 322 340 183 81 141 120 126 157 140 186 187 206 203 281 268 209 267 10 316 85 144 82
347 342 341 342 340 342 339 336 336 337 337 337 338 333 331 330 327 329 325 319 313 309 306 310 323 324 9 218 109 153 143 179 179 176 194 209 218 300 250 280 352 30 36 338 111 156 121
345 340 340 338 340 341 339 336 336 336 335 335 336 332 330 329 327 328 322 315 310 302 298 297 310 338 245 117 126 147 186 279 224 208 242 216 218 209 246 332 6 27 51 11 262 135 267
346 344 341 339 338 335 334 333 334 334 333 334 334 329 328 326 328 327 319 315 307 303 265 334 358 24 268 319 196 204 160 223 231 250 228 213 72 62 14 39 16 12 328 349 352 215 105
348 344 341 339 336 337 336 336 337 336 335 332 330 327 326 326 328 327 321 302 251 8 261 215 256 18 298 212 295 153 186 191 333 329 20 40 47 41 31 51 314 307 337 334 282 225 191
350 349 346 343 343 340 339 339 337 335 331 327 326 325 323 323 325 329 342 32 22 15 71 197 200 248 292 293 286 273 139 92 25 51 32 10 56 279 275 202 220 252 217 237 276 165 122
352 349 346 348 348 342 339 332 327 324 323 326 326 326 324 324 322 321 218 96 114 149 321 237 246 279 251 253 342 18 129 111 93 178 29 17 293 230 251 263 215 201 268 304 292 193 170
358 354 352 350 349 342 337 331 329 325 328 332 328 325 323 324 319 52 346 178 82 107 141 297 202 210 225 141 190 234 118 118 120 135 96 152 238 300 198 329 10 358 205 264 256 8 62
3 3 359 357 354 350 344 338 333 330 330 331 327 325 326 325 343 320 260 21 307 189 65 266 272 270 145 144 304 237 177 131 49 199 164 241 291 6 351 346 103 339 245 268 304 41 292
5 5 3 359 355 348 345 341 337 334 335 335 329 324 326 349 281 197 10 325 288 67 85 171 205 88 80 142 145 296 245 51 167 190 104 254 243 317 337 232 165 229 26 38 14 100 69
8 5 4 2 355 348 348 346 344 336 336 334 329 323 322 152 188 257 318 322 69 44 183 170 143 159 118 12 357 108 130 60 130 138 347 248 267 216 212 251 184 78 121 43 53 68 39
7 5 1 358 357 351 349 349 340 337 338 334 325 317 289 304 221 322 307 56 47 143 358 176 168 150 138 169 220 127 144 144 150 104 314 322 258 279 194 138 58 70 51 348 9 14 213
2 1 358 355 353 352 351 347 340 338 339 335 321 307 232 232 283 356 38 53 184 210 205 104 113 97 172 169 191 110 94 160 209 101 108 124 342 189 173 208 144 65 136 147 239 246 271
357 357 355 355 351 347 348 342 341 342 342 339 320 208 275 258 212 92 73 92 215 209 283 142 87 103 235 190 162 133 160 191 213 168 154 137 283 324 59 159 119 154 47 165 103 29 33
352 351 351 352 350 346 343 342 342 345 344 345 40 11 272 123 160 81 78 236 245 221 329 148 143 142 185 203 153 147 179 210 218 182 147 200 76 2 297 67 23 112 157 42 14 59 326
348 347 348 349 348 346 343 342 343 347 344 342 47 58 315 69 129 56 170 234 276 250 217 179 187 148 199 175 173 184 195 251 214 148 108 145 103 289 39 42 112 20 37 54 111 108 158
347 347 347 348 348 349 344 343 345 349 346 59 94 75 329 25 60 10 177 206 271 284 252 281 150 136 167 155 145 207 204 241 129 141 164 177 127 128 108 319 279 91 101 119 106 278 63
352 348 350 350 350 351 345 344 344 349 342 322 93 121 325 74 139 268 280 276 245 297 285 355 310 178 77 131 116 181 197 28 61 133 162 185 16 58 5 352 357 61 18 89 97 100 192
358 354 356 353 353 354 348 345 346 353 347 140 98 86 340 49 161 139 97 274 281 272 262 253 233 81 105 44 8 134 92 17 13 94 74 85 97 149 182 191 156 90 5 92 138 98 184
358 2 357 355 356 357 353 350 351 357 28 7 44 219 192 207 268 190 160 284 297 330 289 260 208 215 150 102 44 65 37 15 32 358 58 91 115 139 191 158 168 168 151 53 83 169 171
346 356 356 351 353 355 352 353 355 356 3 51 94 111 7 139 323 161 160 243 218 229 225 287 191 167 107 145 171 187 139 135 196 16 68 14 136 129 98 352 320 206 173 164 203 161 250
339 341 348 348 349 350 350 352 356 2 360 47 327 330 109 299 82 116 209 235 243 178 228 223 187 114 102 162 155 105 134 119 132 126 99 76 124 97 219 6 28 354 224 151 143 107 167
330 332 334 341 346 345 348 350 357 3 17 195 306 89 68 264 43 222 280 260 260 230 167 55 104 105 171 105 97 47 45 45 47 49 79 120 91 83 179 66 205 233 326 199 131 94 18
320 323 327 331 336 338 345 347 353 358 7 143 318 72 93 272 249 305 322 313 342 332 64 69 9 287 109 55 62 45 354 28 8 36 38 78 121 113 150 192 280 280 183 161 153 193 11
335 331 327 327 325 332 341 347 351 355 3 43 331 189 99 113 254 326 321 342 28 4 8 27 355 353 64 79 75 128 186 195 281 62 91 64 69 124 129 176 214 233 286 30 23 226 1
338 328 328 327 327 335 338 342 348 353 359 8 304 27 88 120 262 184 215 236 103 88 132 316 348 39 46 77 88 145 216 202 196 180 195 32 15 168 162 211 284 253 312 314 133 219 290
333 332 333 334 334 329 332 337 344 352 358 14 283 5 88 176 276 218 268 188 38 69 138 264 52 354 48 72 122 199 159 220 141 214 184 182 165 202 102 118 248 34 341 181 180 161 143
339 331 327 329 333 330 332 335 342 350 358 3 334 349 348 162 246 269 256 266 229 181 138 338 190 173 178 93 147 116 145 102 162 219 77 225 186 186 172 211 228 292 116 136 149 155 193